Change the Weather History Date:

Thursday, June 14, 2012

  Actual Average Record
Temperature  
Mean Temperature 57 °F 58 °F  
Max Temperature 68 °F 70 °F 97 °F (1918)
Min Temperature 46 °F 45 °F 27 °F (1969)
Degree Days  
Heating Degree Days 8 8  
Month to date heating degree days 123 130  
Since 1 June heating degree days 123 130  
Since 1 July heating degree days 7386 8104  
Cooling Degree Days 0 0  
Month to date cooling degree days 4 0  
Year to date cooling degree days 4 2  
Since 1 June cooling degree days 4 0  
Growing Degree Days 6 (Base 50)    
Moisture  
Dew Point 40 °F    
Average Humidity 60    
Maximum Humidity 80    
Minimum Humidity 40    
Precipitation  
Precipitation 0.00 in 0.11 in 1.80 in (1973)
Month to date precipitation 2.04 1.61  
Year to date precipitation 10.03 7.87  
Snow  
Snow 0.00 in - - ()
Snow Depth 0.00 in    
Sea Level Pressure  
Sea Level Pressure 29.89 in    
Wind  
Wind Speed 9 mph (WNW)    
Max Wind Speed 21 mph    
Max Gust Speed 26 mph    
Visibility 10 miles    
Events      
T = Trace of Precipitation, MM = Missing Value Source: NWS Daily Summary

Daily Weather History Graph

Daily Weather History Graph

Search for Another Location

Airport or City:

Trip Planner

Search our weather history database for the weather conditions in past years. The results will help you decide how hot, cold, wet, or windy it might be!

Date:

Astronomy

Jun. 14, 2012 Rise Set
Actual Time 5:21 AM MDT 9:14 PM MDT
Civil Twilight 4:42 AM MDT 9:54 PM MDT
Nautical Twilight 3:47 AM MDT 10:49 PM MDT
Astronomical Twilight 2:26 AM MDT 12:10 AM MDT
Moon 2:19 AM MDT (6/14) 4:50 PM MDT (6/14)
Length of Visible Light 17h 12m
Length of Day
15h 52m
Waning Crescent, 20% of the Moon is Illuminated
Jun 14
Waning Crescent
Jun 19
New
Jun 26
First Quarter
Jul 3
Full
Jul 10
Last Quarter

Hourly Weather History & Observations

Time (MDT) Temp. Dew Point Humidity Pressure Visibility Wind Dir Wind Speed Gust Speed Precip Events Conditions
12:54 AM 46.9 °F 37.9 °F 71% 29.82 in 10.0 mi West 11.5 mph - N/A   Mostly Cloudy
1:54 AM 48.9 °F 37.0 °F 64% 29.83 in 10.0 mi West 13.8 mph - N/A   Clear
2:54 AM 50.0 °F 37.0 °F 61% 29.86 in 10.0 mi West 15.0 mph - N/A   Mostly Cloudy
3:54 AM 50.0 °F 37.0 °F 61% 29.86 in 10.0 mi West 17.3 mph - N/A   Mostly Cloudy
4:54 AM 50.0 °F 36.0 °F 59% 29.86 in 10.0 mi West 17.3 mph - N/A   Scattered Clouds
5:54 AM 48.0 °F 37.0 °F 66% 29.88 in 10.0 mi West 10.4 mph - N/A   Clear
6:54 AM 48.0 °F 37.9 °F 68% 29.90 in 10.0 mi West 9.2 mph - N/A   Partly Cloudy
7:54 AM 52.0 °F 39.0 °F 61% 29.91 in 10.0 mi West 10.4 mph - N/A   Mostly Cloudy
8:54 AM 55.9 °F 39.9 °F 55% 29.92 in 10.0 mi WNW 17.3 mph 21.9 mph N/A   Clear
9:54 AM 57.0 °F 39.0 °F 51% 29.94 in 10.0 mi NW 13.8 mph 21.9 mph N/A   Clear
10:54 AM 59.0 °F 39.9 °F 49% 29.94 in 10.0 mi WNW 13.8 mph 19.6 mph N/A   Clear
11:54 AM 61.0 °F 41.0 °F 48% 29.94 in 10.0 mi WNW 13.8 mph 20.7 mph N/A   Partly Cloudy
12:54 PM 62.1 °F 39.9 °F 44% 29.93 in 10.0 mi NW 10.4 mph 18.4 mph N/A   Clear
2:54 PM 64.9 °F 41.0 °F 42% 29.91 in 10.0 mi NW 6.9 mph - N/A   Partly Cloudy
3:54 PM 64.9 °F 42.1 °F 43% 29.90 in 10.0 mi West 5.8 mph - N/A   Partly Cloudy
4:54 PM 66.0 °F 42.1 °F 42% 29.90 in 10.0 mi NNW 4.6 mph - N/A   Clear
5:54 PM 66.9 °F 42.1 °F 40% 29.89 in 10.0 mi Variable 4.6 mph - N/A   Clear
6:54 PM 66.0 °F 41.0 °F 40% 29.89 in 10.0 mi Calm Calm - N/A   Clear
7:54 PM 66.0 °F 43.0 °F 43% 29.87 in 10.0 mi Calm Calm - N/A   Clear
8:54 PM 60.1 °F 45.0 °F 57% 29.87 in 10.0 mi Calm Calm - N/A   Clear
9:54 PM 53.1 °F 46.0 °F 77% 29.89 in 10.0 mi East 8.1 mph - N/A   Clear
10:54 PM 52.0 °F 44.1 °F 74% 29.88 in 10.0 mi East 9.2 mph - N/A   Clear
11:54 PM 48.9 °F 43.0 °F 80% 29.89 in 10.0 mi East 8.1 mph - N/A   Clear